Wind_Speed
33 33 34 34 34 34 34 35 35 36 36 37 38 39 40 41 43 45 47 48 49 50 51 51 52 52 52 53 54 55 56 57 57 58 57 57 57 56 56 55 56 56 56 56 56 56 57 57 58 58 58 59 59 59 60 61 62 62 63 63 64 64 65 65 68 70 71 71 72 73 72 71 71 71 71 70 71 71 72 73 75 76 76 77 78
36 36 36 36 36 36 36 36 37 38 38 37 38 38 39 39 40 41 42 44 44 45 46 47 47 47 47 48 48 49 50 51 51 51 51 51 51 51 51 52 52 53 53 54 55 55 56 57 58 58 59 60 61 61 63 63 64 65 65 65 66 66 66 67 68 70 72 74 74 74 74 72 72 71 70 69 69 69 70 71 72 73 74 74 75
39 40 40 40 40 40 39 39 38 39 40 40 40 40 40 40 40 40 41 42 43 43 44 44 44 45 45 46 47 47 48 48 49 50 50 51 51 52 53 53 54 55 55 56 56 57 58 58 59 59 60 61 62 63 64 64 65 66 66 67 68 68 68 68 68 69 71 72 73 73 73 72 70 70 70 69 68 68 69 70 70 71 72 72 73
42 44 44 45 45 45 44 43 42 41 42 42 43 42 42 43 43 43 43 44 45 45 46 47 47 47 47 48 49 49 50 50 51 52 53 53 54 54 55 56 56 57 58 58 59 59 60 60 61 61 62 63 64 64 65 65 66 67 67 68 68 69 69 68 68 68 68 69 70 70 70 70 68 68 68 68 68 67 68 68 69 69 71 71 72
44 46 46 47 48 48 48 48 47 46 45 45 45 45 45 45 45 46 47 47 47 48 49 50 51 51 51 52 53 53 54 54 55 56 56 57 58 58 59 59 59 60 60 61 61 61 62 62 62 63 63 64 65 65 65 66 66 67 67 67 67 67 67 67 67 66 66 67 67 67 67 67 67 66 65 66 67 66 66 66 66 67 68 69 70
46 47 48 49 50 51 51 51 51 51 50 49 49 50 50 49 49 50 51 51 52 53 54 54 55 55 56 56 57 57 58 58 59 60 60 61 61 61 62 62 62 62 62 63 63 63 63 63 63 64 64 65 65 65 65 66 66 66 66 66 65 65 65 64 64 64 64 64 64 64 65 65 65 65 64 63 63 64 65 66 66 66 66 67 68
49 50 51 51 52 54 54 55 55 55 55 55 55 55 56 56 56 56 56 56 57 57 58 59 59 60 61 61 61 61 61 62 62 62 62 62 62 63 63 63 63 63 63 63 63 63 63 63 63 64 64 64 64 64 64 64 64 64 64 63 63 63 62 62 61 61 61 62 62 62 63 63 63 63 62 61 61 63 65 66 67 66 66 66 66
53 53 54 54 55 57 57 58 59 60 60 60 61 61 62 63 63 63 62 62 62 62 62 62 62 62 62 63 63 63 63 63 63 63 62 62 62 62 62 62 63 62 62 62 62 62 62 62 62 62 62 62 62 61 61 61 61 61 61 60 60 60 60 59 59 59 59 60 60 61 60 61 61 61 60 60 61 63 63 63 63 63 63 64 64
56 56 57 57 58 59 60 61 62 63 63 64 64 65 65 66 66 66 66 66 65 65 64 64 64 63 63 62 62 62 62 62 61 61 61 61 61 61 61 61 61 61 61 60 60 60 60 60 60 59 59 58 58 58 58 57 58 58 58 58 57 57 57 58 58 58 59 59 59 59 59 59 60 59 59 59 60 62 61 60 60 61 61 61 62
60 60 61 61 61 61 62 63 64 64 65 65 65 66 66 67 67 67 67 67 66 66 65 65 64 63 62 62 61 60 60 59 59 58 58 58 58 58 58 58 58 58 58 58 58 58 58 57 57 56 55 54 54 54 54 55 55 56 56 56 55 55 55 56 57 58 58 58 58 58 57 58 58 58 59 59 59 58 58 58 60 60 59 60 60
62 62 63 63 64 64 64 65 65 65 66 66 66 66 66 67 67 67 67 66 66 66 66 65 64 63 62 61 59 58 57 56 56 55 54 54 55 55 56 56 56 56 56 56 56 56 56 55 53 52 51 51 52 52 52 52 53 54 54 54 53 53 53 54 56 56 57 57 58 57 57 58 58 57 58 59 58 57 57 57 57 56 56 57 58
63 63 64 64 65 65 65 65 65 65 66 66 66 66 66 66 65 65 65 65 64 64 64 63 63 62 61 60 59 57 56 54 53 52 51 51 51 52 53 54 54 54 54 54 54 54 53 52 51 50 50 50 51 51 51 51 52 52 53 53 52 52 52 53 54 55 56 56 57 57 57 57 58 57 57 57 56 55 53 51 50 50 52 54 55
62 63 63 63 64 65 64 63 63 64 64 64 64 64 63 63 63 62 62 61 61 60 60 59 59 58 58 58 57 55 54 52 51 50 49 49 48 49 50 51 52 52 52 52 51 51 50 50 49 49 49 50 50 50 51 51 52 52 53 53 52 52 52 52 53 53 54 55 56 57 57 56 57 57 55 54 53 51 49 48 47 48 50 52 54
61 61 61 62 63 63 61 61 61 61 61 61 61 61 60 60 60 59 59 58 57 57 56 55 55 54 54 54 53 52 51 50 49 48 48 47 47 47 48 49 49 50 49 49 49 48 48 48 48 48 48 49 50 50 50 51 52 52 52 52 52 52 52 52 52 52 53 54 55 56 55 55 56 56 55 53 53 52 50 50 51 51 50 51 53
59 59 60 61 61 60 60 60 59 59 58 58 57 57 57 57 56 56 56 55 55 54 53 53 52 51 51 51 50 49 48 47 47 46 46 46 46 47 48 48 48 48 48 47 47 47 47 47 48 48 48 48 49 50 51 51 52 52 52 52 52 52 52 52 53 53 53 53 54 55 55 54 54 54 54 53 53 52 52 52 53 52 52 53 54
56 57 58 58 58 58 58 59 58 57 57 56 56 55 54 54 53 53 53 52 52 52 51 50 50 49 49 48 48 47 46 45 45 44 44 44 45 46 47 47 47 47 46 46 46 46 46 46 47 48 49 49 50 50 51 51 52 52 53 53 53 53 54 53 53 54 54 54 53 52 51 49 47 46 45 44 44 46 47 49 49 49 49 51 51
54 55 55 55 55 56 56 56 56 56 55 55 54 54 53 52 52 51 51 50 50 49 49 48 48 48 47 47 47 46 45 44 44 43 43 43 44 45 46 46 46 46 45 45 45 45 45 45 46 48 49 50 51 51 50 51 52 53 54 54 55 55 55 55 55 55 55 54 52 49 47 45 44 42 39 36 35 37 38 41 42 43 45 47 48
52 52 52 52 53 53 53 53 53 53 53 53 53 52 52 52 51 50 50 49 49 48 48 47 47 46 46 46 46 46 45 44 44 43 42 43 44 45 46 46 46 45 45 45 45 45 45 46 46 48 49 51 51 51 50 51 53 53 52 53 54 55 56 55 55 55 55 54 53 51 49 48 48 47 44 42 40 39 38 38 39 41 43 44 44
51 51 50 50 51 51 52 52 52 52 52 52 52 52 51 51 51 50 50 49 49 48 47 47 47 46 46 45 45 45 45 44 44 44 43 43 44 45 46 46 46 46 46 46 46 46 46 47 47 47 49 50 50 50 50 50 50 49 48 50 53 54 53 52 53 53 54 53 52 51 49 48 47 47 47 46 45 44 43 43 43 44 45 46 45
50 50 50 50 50 51 51 51 51 51 51 51 51 51 51 50 50 50 49 49 49 48 47 47 47 46 46 45 45 45 45 44 44 44 44 44 44 46 46 47 47 47 46 46 46 46 46 46 46 46 47 48 48 47 46 45 42 42 45 49 49 48 47 49 51 51 51 51 49 48 47 45 44 44 44 44 45 45 46 47 48 49 50 51 52
49 50 50 49 50 50 50 50 50 50 50 50 50 50 50 50 49 49 49 49 49 48 48 47 47 46 46 46 46 45 45 45 45 45 45 44 44 44 45 46 45 45 45 44 44 44 43 43 43 43 43 44 43 42 39 36 35 39 44 45 43 42 44 47 48 47 46 46 46 45 44 42 40 40 40 41 42 43 44 45 47 49 51 53 54
49 49 49 48 49 49 49 49 49 49 49 49 49 49 49 49 50 50 50 49 49 49 48 48 48 47 47 47 47 46 46 46 45 45 44 43 42 41 41 41 41 41 42 42 41 40 39 39 39 39 38 39 38 36 34 34 36 40 41 41 40 41 43 45 45 44 43 43 43 42 40 39 38 38 38 38 39 40 41 41 41 43 44 46 47
49 49 49 49 49 49 49 50 50 50 50 50 50 50 50 50 50 50 50 50 50 49 49 49 48 48 47 46 46 45 45 44 43 42 41 40 38 36 36 36 36 37 38 39 38 37 36 35 34 34 35 36 35 34 35 37 39 39 39 39 40 40 41 42 43 42 42 42 42 41 39 38 38 38 37 38 38 38 39 39 39 39 39 39 39
50 50 51 51 51 51 51 51 51 51 51 51 51 50 50 49 49 49 48 48 48 48 47 47 46 46 45 44 43 42 41 40 39 38 37 36 35 33 33 33 32 33 36 37 35 34 34 32 32 33 34 35 35 35 36 37 37 37 38 38 39 39 39 40 40 40 41 41 41 41 39 39 39 39 38 38 38 38 38 38 39 39 38 37 36
52 52 52 52 52 52 51 51 50 50 50 49 49 49 48 47 46 46 46 45 45 44 44 43 43 42 42 41 40 39 37 36 35 34 34 33 33 32 31 31 31 31 34 35 33 33 33 32 32 32 33 33 33 34 35 35 35 35 36 36 37 37 37 37 37 38 39 40 40 40 39 39 39 40 39 38 38 37 37 37 37 37 37 36 35
52 51 51 50 50 50 50 49 49 48 47 47 47 47 46 45 44 44 44 43 43 43 42 42 41 40 40 39 38 37 36 34 33 32 32 32 32 31 31 31 31 30 31 32 33 32 31 31 31 32 32 32 33 34 34 33 33 33 34 34 34 34 34 34 34 35 37 38 38 39 39 39 39 40 39 38 38 37 36 36 36 36 36 35 34
51 51 50 50 50 50 49 49 48 47 47 46 46 46 45 44 44 43 43 43 43 42 42 42 41 40 40 39 38 37 35 33 32 32 32 33 33 31 31 32 31 30 30 31 31 30 29 30 31 32 32 32 32 33 32 32 32 32 32 32 32 31 30 31 31 33 34 36 37 38 38 39 39 39 38 38 37 35 34 35 36 35 34 33 33
51 51 51 50 50 50 50 49 48 48 47 47 46 46 45 44 44 43 42 42 42 42 42 42 41 41 40 40 39 37 35 33 31 31 32 33 33 32 32 33 32 30 30 30 28 27 28 30 31 32 32 32 32 31 31 31 31 31 31 30 30 28 28 28 29 30 32 33 34 35 36 37 38 38 37 36 35 33 32 33 34 33 32 32 32
51 50 50 49 49 49 49 49 48 48 47 47 46 45 45 44 44 43 42 41 42 42 42 42 41 41 41 40 39 38 36 33 31 31 32 33 33 32 32 33 33 31 30 29 26 25 27 29 30 31 31 31 31 30 30 30 30 30 29 29 28 27 27 27 28 28 29 30 31 32 33 33 34 34 34 33 32 31 30 31 31 31 30 31 31
50 49 49 49 48 48 48 48 47 47 46 46 45 44 43 42 42 42 42 40 40 40 41 41 40 40 41 40 40 39 37 34 31 30 31 32 32 32 32 33 33 32 30 27 25 26 27 28 29 30 30 30 30 29 29 29 29 29 28 27 27 27 27 27 28 27 27 28 28 29 29 30 30 30 30 30 30 29 29 29 29 29 29 29 29
50 50 49 48 48 48 48 47 47 46 46 45 45 44 43 41 40 40 39 39 39 39 39 39 39 39 40 40 40 39 37 35 33 31 30 31 31 32 33 33 32 32 31 28 25 26 27 27 28 28 28 28 28 28 28 28 28 27 26 26 25 26 26 26 26 26 26 26 26 27 27 27 27 27 28 28 27 27 26 26 26 26 26 26 27
50 50 49 49 48 48 47 47 46 46 45 44 44 44 43 42 40 38 37 37 37 37 37 37 37 37 38 39 39 38 36 34 33 32 31 31 32 32 32 32 31 30 30 29 26 26 26 27 27 27 27 26 26 26 26 26 26 25 25 24 24 24 24 25 25 25 25 25 25 25 24 25 25 25 25 25 25 24 24 23 23 23 24 24 24
49 49 48 48 47 47 46 46 45 44 44 43 43 42 42 41 40 38 36 34 34 34 35 35 35 35 35 36 37 37 36 34 33 32 31 30 31 32 32 31 30 29 29 28 27 26 25 26 27 26 26 25 25 24 25 24 24 24 24 24 24 23 23 23 24 24 24 24 23 22 22 22 23 23 23 22 22 22 21 21 21 21 21 21 21
47 47 47 46 46 45 45 44 44 43 42 42 41 40 40 39 38 38 36 34 32 31 31 31 32 33 33 33 34 34 34 33 31 30 29 28 29 31 31 30 29 28 27 27 27 25 25 25 25 25 25 24 24 24 23 23 23 23 23 23 23 22 22 23 23 23 22 22 21 21 21 20 21 21 20 20 20 20 20 19 19 19 19 19 19
45 45 45 45 44 44 43 42 42 41 40 39 39 38 37 36 36 35 35 34 32 30 28 28 28 29 29 30 31 31 31 30 29 28 27 26 28 31 30 27 26 26 26 26 25 24 24 24 23 23 23 23 23 23 22 22 22 22 23 22 22 21 22 22 22 22 21 20 20 19 19 19 18 18 18 18 18 18 18 17 17 17 17 17 17
44 44 43 43 43 42 41 40 39 39 38 37 36 35 35 34 33 32 32 31 30 29 27 26 25 25 25 26 27 27 27 26 25 25 24 25 28 30 28 25 24 24 24 24 24 23 22 22 22 22 22 21 21 21 21 21 21 21 21 21 20 20 21 21 21 20 19 18 18 18 18 17 16 16 16 16 17 17 16 16 16 16 15 16 15
43 42 42 41 40 39 38 37 36 35 35 34 33 32 31 30 30 29 28 28 27 26 25 24 23 22 22 22 22 23 23 23 22 22 23 25 27 27 24 22 22 22 22 22 22 21 20 20 20 20 20 20 20 19 19 20 20 20 19 19 20 20 20 19 19 18 17 17 17 17 16 15 15 15 15 15 15 15 15 14 14 13 13 13 13
41 40 39 39 38 37 36 34 33 32 31 30 29 29 28 27 26 25 25 25 24 23 23 22 21 20 19 18 18 19 20 20 20 20 22 23 24 23 22 21 21 21 21 20 20 19 19 19 19 19 19 19 18 18 18 18 18 18 18 19 19 19 19 18 17 17 16 15 16 16 15 14 13 13 14 13 13 13 13 13 13 12 11 11 11
38 37 37 36 36 34 33 32 31 29 28 27 26 25 24 23 23 22 22 21 21 21 20 19 18 18 17 16 16 16 17 18 18 19 20 21 21 21 20 20 20 20 20 19 18 18 18 17 18 18 18 18 17 17 17 17 17 17 18 18 18 18 17 17 16 15 14 14 14 14 14 13 12 12 12 12 11 11 11 11 11 10 10 9 9
35 35 34 34 33 32 30 29 28 26 25 24 23 22 21 20 20 19 19 18 18 18 17 16 16 15 15 14 14 14 14 15 16 17 18 18 19 18 18 18 18 18 18 18 17 17 17 17 17 17 17 16 16 15 16 16 16 16 17 18 17 16 16 15 14 13 13 13 13 13 12 11 11 11 10 10 10 10 10 9 10 10 9 8 8
34 33 33 32 31 30 28 26 24 23 22 21 20 19 18 18 17 16 16 16 15 15 14 14 13 13 12 12 12 12 12 12 14 15 15 16 16 16 16 16 16 15 15 15 16 16 16 16 16 15 14 14 13 14 15 15 15 16 16 16 16 15 14 14 13 13 12 13 12 12 11 10 10 10 9 9 9 9 9 9 9 9 9 8 8
33 32 31 31 30 28 26 24 22 20 19 18 18 17 16 15 15 14 14 14 13 12 12 11 11 10 10 9 9 9 10 10 10 11 12 12 13 13 13 13 12 12 12 12 12 12 12 13 13 12 11 11 12 13 14 14 15 15 15 15 14 14 14 14 13 13 12 12 12 11 10 10 10 9 9 9 8 8 8 8 8 8 8 8 8
31 30 30 29 28 27 25 23 21 20 18 17 16 15 15 14 14 13 13 12 12 11 10 9 8 8 8 7 7 7 7 7 7 8 8 9 9 10 10 9 9 9 8 8 8 8 8 9 9 9 9 9 10 11 12 13 13 13 13 13 13 13 13 13 13 13 12 11 10 10 10 10 10 9 9 8 8 8 7 7 8 8 8 8 9
30 29 28 27 26 26 24 23 21 20 19 18 17 16 15 14 13 12 12 11 10 9 8 8 7 7 7 6 6 6 5 5 5 6 6 7 7 7 7 6 6 5 4 4 4 5 5 6 6 7 7 8 9 10 11 11 11 11 12 12 12 12 12 12 12 11 11 10 9 9 10 10 9 9 8 8 8 8 7 7 8 8 8 9 11
29 28 27 26 26 25 24 23 21 20 19 18 17 16 15 14 13 12 11 11 10 9 9 8 8 7 7 6 6 5 5 5 5 5 5 5 5 4 4 3 2 2 1 1 1 2 3 4 5 6 7 7 8 9 9 9 9 9 10 10 10 10 10 10 9 9 8 8 8 9 10 10 9 8 8 8 8 8 8 8 9 9 10 11 13
28 27 27 26 26 25 24 23 22 21 20 19 18 17 16 15 14 14 13 12 12 11 10 10 9 9 8 8 7 7 6 6 5 5 5 4 4 3 3 3 3 3 3 2 2 2 3 4 4 5 6 6 7 7 7 7 7 7 8 8 7 7 7 6 6 6 5 6 7 8 9 9 8 8 8 8 8 8 9 9 10 11 12 13 13
27 27 26 26 26 25 25 24 23 22 21 20 20 19 18 17 16 16 15 15 14 13 13 12 11 11 10 9 9 8 7 7 7 6 6 6 6 6 6 6 5 5 5 4 4 4 4 4 5 5 5 5 5 5 5 6 6 6 6 6 6 5 4 3 2 1 2 4 6 7 8 8 8 8 8 9 9 9 10 10 11 12 12 12 12
27 27 26 26 25 25 24 24 23 23 22 22 21 20 20 19 18 18 17 17 16 15 15 14 13 12 12 11 10 10 10 9 9 9 9 9 9 8 8 7 7 7 6 6 6 6 5 5 5 5 5 5 5 5 5 6 6 6 6 6 6 5 5 4 3 2 2 3 4 5 6 7 7 8 8 8 9 9 10 10 11 11 11 11 12
27 27 26 26 26 25 25 24 24 24 23 23 22 22 21 20 20 19 18 18 17 17 16 15 15 14 14 14 13 13 13 13 13 12 12 11 11 10 10 9 9 8 8 8 7 7 7 7 7 7 7 7 6 6 6 6 6 6 6 6 5 5 5 4 3 2 2 2 3 4 5 6 6 7 7 8 8 8 9 9 10 10 10 10 11
27 27 27 27 26 26 26 25 25 25 24 23 23 22 22 21 21 20 20 19 19 18 18 18 17 17 17 17 17 16 16 15 15 14 14 13 12 12 11 11 11 10 10 10 10 9 9 9 9 8 8 8 7 7 7 7 6 6 6 6 6 5 5 4 3 2 1 0 1 3 4 4 5 6 6 7 7 8 8 8 9 9 9 9 9
28 28 27 27 27 26 26 26 25 25 25 24 24 23 23 22 22 22 22 22 21 21 21 21 21 20 20 19 19 18 17 17 16 15 15 14 14 13 13 13 13 12 12 12 12 11 11 10 10 9 9 9 9 8 8 8 8 7 7 7 7 6 6 5 4 3 3 2 1 1 2 2 3 4 4 5 5 6 6 6 7 7 7 7 7
Wind_Direction
299 298 298 296 294 292 291 290 289 287 285 283 281 279 277 275 273 272 271 271 270 270 270 270 270 269 268 268 267 267 267 268 268 268 268 269 269 269 268 268 268 268 268 268 268 268 269 269 269 270 271 271 271 272 272 273 274 275 276 277 278 279 279 279 280 281 281 281 281 282 282 282 282 282 283 283 283 284 285 285 286 286 286 286 286
300 300 300 299 297 295 292 290 288 286 285 283 281 279 277 275 274 273 272 272 271 271 270 270 270 270 269 268 268 267 267 267 267 267 267 267 267 268 268 268 268 267 268 268 268 269 270 270 271 272 273 274 275 275 275 276 276 277 277 278 279 279 279 279 280 281 281 281 281 281 282 282 281 282 282 282 282 282 282 283 283 283 283 284 284
302 302 301 300 299 297 294 291 288 285 284 282 280 278 276 275 274 272 272 272 271 271 271 270 269 270 270 269 269 269 268 268 268 268 268 268 268 269 269 269 269 269 270 270 271 271 272 272 273 273 274 274 275 276 276 277 277 277 278 278 278 278 278 278 278 278 279 280 280 280 281 281 281 281 281 281 281 281 281 281 281 281 281 281 281
300 300 299 298 297 296 295 292 289 286 284 282 280 278 277 276 276 275 274 273 273 273 273 272 272 272 272 272 272 272 272 272 272 272 272 272 272 272 272 272 272 272 272 272 272 273 273 273 273 273 273 274 274 275 275 275 276 276 277 277 277 277 277 277 277 277 277 278 279 279 279 279 279 279 280 279 279 280 280 280 279 279 280 280 280
297 296 295 294 292 292 291 290 289 287 285 283 281 279 277 276 276 276 275 275 275 274 274 274 274 274 273 273 273 273 273 273 273 273 273 273 273 273 273 273 273 273 273 273 273 273 273 273 273 274 274 274 274 274 274 275 275 275 275 275 276 276 276 276 276 276 276 277 278 278 278 278 278 277 277 278 278 278 278 277 277 278 278 279 279
294 292 291 290 289 287 286 286 285 284 284 283 282 281 279 277 276 275 275 274 274 274 274 274 274 274 274 274 274 274 274 274 274 274 274 274 274 274 274 274 274 274 274 274 274 274 274 275 275 275 275 275 275 275 275 275 275 274 275 275 275 274 274 275 275 275 275 276 277 277 277 277 277 277 277 277 277 277 276 276 276 276 277 277 278
292 290 288 287 286 285 284 283 282 282 281 281 281 281 281 280 279 278 277 276 275 275 275 275 275 276 276 276 276 276 276 277 277 277 276 276 276 276 276 276 276 276 276 276 276 276 276 276 276 275 275 275 275 275 274 274 274 274 274 274 274 274 274 274 274 274 274 275 275 276 276 276 276 276 276 276 275 275 275 276 276 276 277 277 277
292 290 289 287 286 285 284 283 282 281 281 280 280 281 281 281 281 281 281 280 279 279 279 278 278 278 278 278 278 279 279 279 279 279 279 279 279 278 278 278 277 277 277 277 277 276 276 276 276 275 275 275 275 275 274 274 274 274 274 274 274 274 274 274 273 273 273 274 274 274 275 275 275 275 275 274 273 274 275 276 276 277 277 276 276
295 293 291 289 288 287 286 285 284 283 283 282 282 281 281 281 281 282 283 283 283 283 283 282 282 282 282 282 282 282 282 282 282 282 281 281 281 280 280 279 279 278 278 278 277 277 277 276 276 276 276 276 275 275 275 275 275 275 275 275 275 274 274 274 274 273 273 273 274 274 274 274 274 275 274 273 273 274 275 275 275 275 276 275 275
295 293 292 291 289 288 287 286 286 285 285 284 284 283 283 283 283 283 283 284 284 285 285 285 285 285 285 285 285 285 285 285 285 284 284 283 282 282 281 280 280 279 279 279 278 277 277 277 277 277 277 276 276 275 275 275 275 275 275 275 274 274 275 274 274 274 274 274 274 274 275 275 275 275 275 274 274 274 274 274 273 274 275 275 275
293 292 292 291 290 289 288 288 288 288 288 287 287 287 287 286 286 286 286 286 286 287 287 287 287 287 287 287 287 287 286 286 285 285 284 284 283 282 281 281 280 280 280 279 279 278 278 278 278 277 276 275 275 274 274 274 274 274 274 274 274 274 274 274 274 274 274 275 275 274 274 275 275 275 274 274 274 274 274 274 274 275 274 274 273
294 293 292 292 291 290 290 291 291 291 290 290 290 290 290 290 290 290 289 289 289 289 289 289 289 289 289 288 288 288 287 286 286 285 284 283 282 282 281 281 281 280 280 280 280 280 280 279 279 278 276 276 275 274 274 274 274 273 273 273 273 273 273 273 273 273 274 274 275 275 275 275 275 274 274 275 275 274 274 273 272 272 272 272 272
295 294 294 293 292 291 292 292 292 291 291 291 291 291 291 291 291 291 291 291 291 290 290 290 289 289 289 288 288 288 288 287 287 286 285 284 283 282 281 281 281 281 281 281 281 281 280 280 279 278 278 278 277 276 275 274 274 273 273 272 272 272 271 271 271 272 273 273 273 274 274 275 275 275 275 275 274 274 272 270 269 269 268 269 271
296 295 295 294 293 293 293 293 292 292 292 292 291 291 291 291 291 291 291 291 291 291 290 290 290 289 289 288 288 287 287 287 286 285 285 284 283 281 281 281 282 282 282 282 281 281 280 280 279 278 278 278 277 277 276 275 274 273 273 273 273 272 271 270 270 270 271 272 272 273 273 273 273 274 275 275 274 274 273 272 270 269 268 269 271
296 296 295 295 295 295 295 294 294 294 293 293 293 292 292 291 291 291 290 290 290 290 290 289 289 289 288 288 287 287 287 286 285 284 283 283 282 281 281 281 281 281 281 281 280 280 280 280 279 278 278 277 276 276 276 275 275 275 275 274 274 273 272 271 271 270 270 270 270 271 271 272 273 274 275 275 275 275 274 274 273 272 271 271 272
297 296 295 296 296 296 295 295 295 295 295 295 294 294 293 293 292 292 291 290 290 290 289 289 288 288 288 287 287 287 286 285 284 284 283 282 281 280 280 280 280 279 279 279 278 279 279 279 278 278 277 276 275 275 275 276 276 276 276 275 274 273 272 272 271 270 270 270 270 270 271 271 272 273 274 275 275 274 274 273 272 272 272 271 271
297 296 296 296 296 295 295 295 295 295 295 295 295 295 295 294 294 294 293 292 291 291 290 289 289 288 287 287 286 286 285 284 284 283 282 281 280 279 279 279 279 278 278 278 277 277 277 276 276 276 275 275 275 275 276 276 276 275 275 275 274 274 273 271 270 270 269 269 269 269 269 268 267 265 265 264 264 265 266 266 266 266 268 269 269
297 297 297 297 296 295 295 295 295 295 295 295 295 295 295 294 294 294 293 293 292 291 291 290 289 288 288 287 286 286 284 284 283 282 282 281 281 280 280 279 279 279 279 278 278 277 277 276 275 275 275 276 276 277 277 276 276 276 277 276 275 274 273 273 272 271 271 269 269 268 267 267 266 264 261 257 255 254 255 257 259 261 263 263 264
299 299 298 298 297 296 296 296 296 296 295 295 295 295 294 294 294 293 293 292 292 291 291 290 289 288 288 287 287 286 285 284 284 283 283 282 282 282 282 281 281 281 281 280 279 279 278 277 276 276 276 277 278 278 278 278 279 281 279 276 275 275 276 276 275 274 273 272 271 270 269 268 266 265 264 262 259 255 252 253 255 257 259 260 262
300 300 299 299 298 297 297 296 296 296 295 295 295 294 294 294 293 293 292 292 292 291 290 290 289 288 288 287 287 286 286 285 284 284 284 283 284 284 283 283 283 283 282 282 280 279 279 278 277 277 277 278 278 279 280 282 284 283 279 277 278 279 279 278 276 276 276 276 276 274 273 271 269 267 266 265 264 261 257 255 256 257 260 262 264
301 300 299 299 298 297 297 297 296 296 295 295 295 294 294 294 293 293 292 292 292 291 290 290 289 288 288 288 287 287 287 286 285 285 285 285 285 285 285 284 284 283 282 281 280 279 279 278 278 278 279 279 280 281 284 284 282 278 278 279 281 280 279 279 280 280 280 280 279 278 277 276 274 272 270 268 267 265 263 261 259 259 261 263 265
301 301 300 300 299 298 298 297 297 296 296 295 295 294 294 294 293 293 292 292 292 291 291 290 289 289 288 288 288 287 287 287 286 285 285 285 284 284 284 284 284 282 281 280 279 280 279 279 279 280 280 281 281 282 282 279 276 276 278 280 279 278 279 281 283 283 282 281 281 280 279 278 277 275 274 272 271 271 270 268 267 265 265 265 266
303 302 301 300 300 299 298 298 297 297 296 296 295 294 294 293 293 292 292 292 291 291 290 290 289 289 288 287 287 287 286 286 286 285 285 284 283 282 282 282 281 281 280 280 280 280 280 279 280 280 279 279 279 279 278 277 278 280 280 280 279 279 280 281 281 282 281 281 280 280 279 279 278 276 275 274 273 273 273 273 273 271 271 269 268
303 302 301 301 300 300 299 298 298 297 296 296 295 294 294 293 293 292 292 291 291 290 290 290 289 289 288 287 287 287 286 286 286 286 285 284 283 282 281 280 279 279 279 279 280 280 279 278 278 277 276 278 279 279 279 279 281 282 281 281 281 281 280 280 280 280 279 279 279 279 279 279 277 276 275 274 273 273 273 273 273 273 273 271 269
302 302 301 301 300 300 299 299 298 297 297 296 295 295 294 294 293 293 292 292 291 291 290 290 289 289 288 288 287 287 286 287 286 286 285 284 283 281 280 279 277 276 277 278 279 278 278 278 278 277 278 280 280 280 279 280 281 282 282 282 282 282 282 281 280 279 278 277 277 277 277 277 276 275 276 275 275 274 274 273 273 273 272 271 269
303 303 302 301 300 300 299 298 298 297 297 296 295 295 295 294 293 293 293 292 291 291 290 289 289 289 288 288 287 287 286 286 286 285 285 283 281 280 279 277 276 274 275 277 278 279 280 280 280 279 279 280 279 279 281 282 283 283 283 283 283 283 283 282 280 279 277 276 276 275 275 274 274 274 275 275 275 275 275 275 274 273 272 272 270
303 303 302 301 300 300 299 298 297 297 296 295 294 294 294 293 293 292 292 291 291 290 290 289 289 288 288 287 286 286 285 285 285 284 283 281 280 279 278 277 276 275 275 275 276 278 279 279 278 278 278 279 280 281 283 285 285 285 285 286 286 285 284 281 279 277 275 275 274 274 274 274 274 273 273 273 274 275 276 276 276 275 274 274 271
303 303 302 301 300 300 299 298 297 296 295 295 294 294 293 293 292 291 291 290 290 289 289 288 288 288 287 286 285 285 284 284 284 282 281 280 280 280 279 277 276 275 274 274 275 275 274 274 275 276 277 279 280 281 283 285 286 286 288 289 289 289 287 283 279 276 275 275 274 275 275 275 275 275 275 274 274 275 275 275 275 276 275 274 272
304 303 303 302 301 300 299 298 298 297 296 295 294 294 293 292 292 291 290 289 289 288 288 288 287 287 286 285 285 284 283 282 281 280 279 279 279 279 278 278 278 277 275 275 276 274 271 270 272 274 275 277 279 280 282 284 285 287 289 290 291 290 288 285 282 280 279 278 277 277 277 276 276 275 275 274 274 274 274 274 274 274 274 273 272
306 306 305 304 303 302 300 299 299 298 297 296 294 293 292 291 291 290 289 288 288 287 287 286 286 286 285 284 284 284 283 282 280 278 277 277 278 278 276 276 278 279 278 277 276 273 271 270 271 272 274 276 277 279 280 282 283 285 287 288 288 287 286 285 285 284 282 281 280 279 278 277 276 274 272 271 271 271 271 272 273 273 273 273 273
308 307 306 305 304 303 302 301 300 299 298 296 295 294 292 291 290 289 288 288 287 285 285 284 284 284 284 284 283 283 283 283 281 278 276 275 274 274 275 276 278 279 279 278 275 273 273 273 273 273 274 276 277 278 279 280 282 283 285 285 285 285 285 286 285 284 283 282 281 280 279 278 276 273 271 270 270 271 272 272 272 273 273 273 273
309 308 307 307 305 304 303 302 301 300 298 297 296 295 294 292 291 289 287 286 285 284 283 282 281 281 281 281 282 282 282 281 280 278 276 274 274 274 275 276 276 276 277 277 275 274 274 274 274 275 276 277 278 278 279 280 282 283 284 284 284 285 286 286 286 285 284 284 283 282 281 278 275 272 270 270 272 273 273 273 272 273 273 272 272
309 309 308 307 306 305 304 303 302 301 299 298 297 296 295 294 293 290 288 286 284 283 282 281 280 278 278 278 279 280 280 279 278 277 276 275 275 274 273 273 273 274 275 276 275 274 273 273 274 276 278 279 279 280 281 282 283 283 284 284 285 287 287 287 286 285 286 285 284 282 280 277 273 270 268 270 272 273 274 274 273 273 272 271 271
311 310 310 309 308 307 306 304 303 302 301 300 298 297 296 296 294 293 291 289 286 283 281 280 278 277 277 276 276 276 277 278 278 277 276 275 273 272 272 272 274 274 274 274 273 272 270 270 272 275 277 280 281 282 283 283 283 283 283 285 287 288 288 287 286 286 286 285 284 282 279 275 271 268 266 267 269 271 273 274 273 271 270 270 269
313 313 312 311 310 309 308 307 305 304 303 302 300 299 298 297 296 295 294 292 290 287 284 281 279 278 276 275 275 275 276 277 277 276 275 273 271 271 272 273 273 272 272 272 272 271 270 270 271 272 274 277 280 282 282 282 282 282 283 284 286 287 287 287 286 286 286 285 283 281 278 275 270 266 264 264 266 269 271 273 272 271 269 267 267
316 316 315 314 312 311 310 309 308 306 305 304 302 301 300 299 298 297 295 294 293 291 289 286 283 280 278 276 275 275 275 275 274 274 272 269 268 270 273 274 274 273 272 271 271 270 270 271 271 272 274 277 279 280 281 281 280 281 283 285 285 286 287 287 287 286 286 285 282 279 276 273 268 263 261 262 264 267 270 271 271 271 269 267 267
320 319 318 316 315 314 313 312 310 308 307 306 304 303 302 301 300 299 298 296 295 293 292 289 286 283 280 279 277 275 274 273 272 271 269 268 269 273 277 277 275 273 271 271 271 271 271 272 272 273 275 277 279 280 280 280 281 282 284 285 285 287 288 288 287 287 285 282 280 278 274 270 264 258 257 258 262 266 268 268 267 267 267 267 267
323 322 321 320 319 318 317 315 313 311 310 308 306 305 304 304 302 301 300 299 297 296 294 292 290 287 284 281 278 275 274 273 270 268 268 269 272 275 277 276 274 272 272 272 273 273 272 273 274 275 277 278 280 281 281 281 282 283 284 284 286 288 290 289 288 287 285 281 278 277 273 266 258 253 253 256 259 262 265 266 266 265 265 267 268
328 327 326 325 323 322 321 319 318 316 314 312 311 309 308 307 306 305 303 302 300 299 298 296 294 292 288 284 279 275 273 272 271 269 269 270 272 274 275 275 274 275 275 276 275 274 274 275 275 276 278 280 281 282 282 282 282 283 284 286 288 290 292 291 289 287 284 280 277 275 271 262 251 246 249 253 255 257 259 262 264 264 262 262 262
333 332 331 330 329 328 326 325 323 321 319 318 317 316 315 314 312 310 309 307 306 305 303 301 298 296 292 288 283 278 274 272 272 272 271 272 274 276 277 277 277 276 276 276 276 274 274 274 274 276 278 281 282 282 281 281 283 285 287 289 291 292 292 290 288 285 282 278 276 273 267 255 243 240 243 248 253 255 255 256 260 259 255 253 254
339 339 339 338 337 336 335 333 331 329 328 327 325 324 323 321 319 317 316 314 313 311 308 306 303 300 297 294 290 285 279 275 274 274 275 277 279 280 281 282 282 281 279 276 273 272 271 272 274 275 277 278 278 279 281 284 287 290 291 292 293 292 289 287 285 282 278 274 273 270 260 245 234 233 237 242 247 249 249 251 253 253 252 252 254
345 345 346 346 346 346 345 345 343 341 340 337 335 333 332 329 327 326 324 321 320 318 316 313 309 306 304 301 298 293 288 284 280 279 280 283 284 286 287 288 286 284 281 276 272 270 269 270 272 274 275 277 280 282 286 290 292 293 293 293 292 290 288 285 283 279 276 273 270 264 250 234 225 226 230 234 238 240 242 245 248 250 253 258 263
351 351 352 353 354 355 355 356 355 354 352 350 347 345 343 341 339 337 335 333 332 331 329 326 321 318 317 314 311 306 301 297 294 291 290 291 292 293 294 293 290 287 282 276 271 268 266 267 271 276 280 284 288 290 292 294 295 294 294 294 293 291 289 286 282 278 274 270 265 252 235 222 218 220 224 227 230 234 237 242 248 253 259 265 270
358 358 358 359 0 2 3 3 3 3 2 360 359 358 356 354 353 351 350 350 350 349 349 347 342 339 338 337 334 329 323 318 314 310 306 305 304 303 301 300 297 292 284 276 270 267 268 274 282 289 294 297 298 298 298 298 298 298 298 297 296 295 291 286 282 277 270 264 254 238 221 213 213 218 221 224 229 235 240 246 253 259 264 268 270
4 4 5 6 8 9 10 10 10 10 10 9 8 8 8 8 8 9 10 10 10 9 8 6 4 3 3 4 3 1 356 349 342 336 330 328 326 324 326 326 328 328 321 313 304 298 298 301 304 306 307 307 306 306 306 308 308 309 308 306 304 301 297 290 283 275 266 256 239 221 210 208 211 217 222 227 233 240 246 252 257 260 263 266 270
7 9 11 13 14 15 16 18 18 19 20 20 20 20 20 21 21 22 23 23 23 23 23 22 23 24 25 25 25 22 18 13 9 5 5 9 14 25 38 46 50 51 48 38 23 1 339 330 327 324 322 322 322 322 324 327 328 327 327 326 323 319 313 303 290 276 260 238 217 204 202 205 212 217 223 229 236 242 247 252 256 261 265 269 274
11 14 15 17 18 19 20 22 23 24 25 26 26 27 28 29 29 30 31 32 33 34 34 34 35 35 36 35 35 34 33 33 35 38 44 52 57 61 63 63 61 57 53 46 35 21 8 359 355 352 351 351 352 353 353 354 354 354 354 356 358 357 355 348 332 287 220 197 193 194 198 207 215 220 226 232 238 244 250 255 261 266 271 276 279
17 18 20 21 22 24 25 26 28 29 30 31 32 33 34 36 37 38 38 39 40 40 41 41 41 41 42 43 45 47 50 53 57 61 64 66 67 67 66 64 61 57 51 46 40 33 28 27 28 29 30 29 26 25 23 19 18 19 19 21 26 30 33 41 54 85 141 169 184 196 206 216 224 231 237 242 247 252 257 262 267 272 275 277 280
22 23 24 26 27 28 30 31 33 34 35 36 37 38 39 40 41 42 42 43 44 45 46 47 48 50 52 54 57 60 63 65 67 69 69 69 69 67 65 62 59 55 51 48 47 46 47 49 51 50 49 48 46 42 39 35 33 33 33 34 38 42 47 54 66 86 124 167 194 213 222 230 237 243 247 252 255 260 263 266 271 275 278 279 280
25 26 27 29 30 31 33 34 35 36 37 38 39 40 41 42 43 45 46 47 49 51 53 55 57 59 61 63 65 67 69 69 70 70 69 68 66 64 62 60 58 56 56 56 58 59 60 60 60 59 58 55 52 49 45 41 38 36 36 36 38 39 42 45 50 56 67 205 236 240 243 248 252 256 259 262 265 268 272 274 276 278 279 279 279
28 29 30 31 33 34 35 36 38 39 40 42 43 44 46 47 49 51 53 54 56 59 61 62 64 65 67 68 69 69 69 69 69 68 66 65 63 62 62 62 63 63 64 65 65 65 64 63 60 58 55 52 48 45 43 40 38 37 36 36 36 36 37 37 37 35 30 19 353 317 293 285 279 276 277 278 279 279 281 282 282 282 281 281 282
Height
2955 2954 2952 2951 2950 2949 2948 2947 2946 2944 2943 2942 2941 2940 2939 2938 2936 2935 2935 2935 2934 2933 2932 2931 2930 2929 2928 2927 2927 2926 2925 2925 2924 2923 2922 2922 2921 2921 2921 2920 2920 2920 2919 2919 2919 2918 2917 2917 2917 2917 2916 2915 2916 2915 2914 2913 2912 2911 2910 2908 2908 2907 2905 2903 2897 2896 2903 2908 2907 2906 2906 2903 2901 2901 2901 2898 2898 2898 2897 2896 2895 2893 2892 2891 2891
2951 2950 2949 2947 2946 2945 2944 2943 2941 2940 2939 2938 2936 2935 2934 2933 2932 2930 2929 2929 2928 2926 2925 2924 2923 2922 2922 2920 2920 2919 2918 2918 2917 2916 2916 2915 2914 2914 2913 2913 2912 2912 2912 2911 2911 2910 2910 2910 2910 2909 2908 2906 2906 2906 2904 2904 2902 2901 2901 2900 2898 2898 2897 2894 2890 2887 2889 2895 2897 2896 2896 2893 2890 2891 2891 2888 2888 2890 2889 2887 2887 2886 2884 2883 2882
2947 2946 2944 2943 2942 2941 2939 2938 2937 2935 2934 2933 2932 2931 2929 2928 2927 2925 2924 2923 2922 2920 2919 2918 2917 2916 2915 2914 2913 2912 2912 2911 2910 2909 2909 2908 2907 2906 2906 2905 2905 2904 2904 2904 2903 2903 2902 2902 2902 2901 2900 2898 2898 2897 2896 2895 2893 2891 2891 2891 2889 2889 2889 2887 2883 2880 2879 2881 2885 2887 2887 2884 2880 2880 2881 2879 2878 2879 2879 2878 2877 2877 2876 2875 2874
2944 2942 2940 2939 2937 2936 2934 2933 2931 2930 2928 2927 2926 2925 2924 2922 2921 2919 2918 2917 2916 2914 2913 2912 2911 2910 2909 2907 2906 2906 2905 2904 2903 2902 2901 2900 2899 2899 2898 2897 2897 2896 2896 2895 2895 2894 2894 2893 2894 2893 2891 2890 2890 2889 2888 2886 2885 2883 2882 2882 2881 2879 2879 2878 2876 2873 2870 2869 2873 2876 2876 2875 2872 2870 2871 2870 2869 2869 2869 2868 2867 2866 2866 2865 2864
2939 2938 2936 2934 2932 2931 2929 2927 2926 2924 2922 2921 2919 2918 2917 2916 2915 2913 2912 2911 2909 2908 2906 2905 2904 2902 2901 2900 2899 2898 2897 2896 2895 2894 2893 2892 2891 2890 2889 2889 2888 2887 2887 2886 2886 2885 2885 2884 2885 2884 2882 2881 2880 2880 2879 2878 2876 2875 2874 2873 2873 2870 2869 2869 2867 2865 2862 2859 2861 2864 2865 2864 2862 2861 2862 2861 2860 2859 2859 2858 2857 2855 2855 2856 2855
2934 2932 2930 2928 2926 2925 2923 2922 2920 2918 2917 2915 2913 2911 2910 2909 2908 2907 2905 2904 2902 2900 2899 2898 2896 2894 2893 2892 2890 2889 2888 2887 2886 2885 2883 2882 2881 2880 2879 2879 2878 2878 2877 2877 2876 2875 2875 2875 2875 2874 2872 2871 2870 2870 2870 2869 2867 2866 2865 2864 2863 2861 2859 2859 2858 2855 2853 2851 2850 2851 2853 2853 2852 2851 2852 2853 2850 2849 2848 2848 2847 2846 2846 2847 2846
2928 2926 2924 2922 2920 2918 2916 2914 2913 2911 2910 2908 2906 2904 2902 2900 2899 2898 2897 2895 2894 2892 2890 2889 2887 2886 2884 2883 2881 2880 2879 2878 2876 2875 2873 2872 2871 2870 2869 2868 2868 2868 2867 2867 2866 2866 2865 2865 2864 2864 2863 2861 2860 2860 2860 2859 2857 2856 2855 2854 2853 2851 2850 2849 2848 2846 2844 2843 2842 2841 2842 2843 2843 2842 2843 2843 2841 2839 2839 2838 2836 2837 2837 2837 2837
2920 2918 2916 2914 2912 2909 2908 2906 2903 2902 2901 2899 2897 2895 2893 2891 2889 2887 2886 2885 2883 2882 2880 2879 2878 2876 2874 2873 2871 2870 2869 2868 2866 2864 2863 2862 2860 2859 2859 2858 2857 2858 2857 2857 2856 2856 2855 2855 2854 2854 2853 2852 2851 2850 2849 2848 2847 2845 2845 2845 2843 2841 2840 2839 2838 2837 2836 2834 2833 2833 2833 2833 2834 2833 2834 2833 2831 2830 2832 2830 2827 2827 2828 2827 2827
2910 2908 2907 2905 2903 2900 2898 2896 2893 2892 2890 2889 2887 2885 2883 2881 2879 2877 2875 2873 2872 2870 2869 2868 2866 2865 2864 2862 2861 2860 2859 2857 2855 2854 2852 2851 2849 2848 2848 2847 2847 2847 2847 2846 2846 2846 2845 2844 2844 2844 2843 2842 2841 2839 2839 2838 2837 2835 2834 2835 2833 2831 2830 2829 2828 2827 2827 2826 2825 2825 2824 2823 2824 2825 2824 2824 2822 2822 2824 2823 2819 2819 2820 2818 2818
2902 2899 2897 2895 2893 2890 2888 2886 2883 2881 2880 2878 2876 2874 2872 2870 2869 2867 2865 2863 2862 2860 2858 2857 2855 2854 2853 2852 2851 2849 2848 2847 2845 2843 2842 2840 2838 2837 2837 2837 2836 2835 2835 2835 2835 2835 2835 2834 2834 2834 2833 2832 2831 2830 2829 2828 2827 2825 2824 2824 2824 2822 2821 2820 2819 2818 2818 2817 2816 2817 2815 2814 2816 2816 2814 2814 2815 2815 2815 2814 2812 2811 2812 2809 2808
2893 2890 2887 2885 2883 2880 2878 2876 2874 2872 2869 2867 2865 2863 2861 2860 2858 2856 2855 2853 2851 2849 2848 2847 2845 2844 2843 2842 2841 2840 2839 2838 2836 2834 2832 2830 2828 2827 2826 2826 2826 2826 2825 2825 2825 2825 2825 2825 2825 2825 2824 2823 2822 2820 2820 2819 2818 2817 2816 2815 2815 2814 2813 2811 2810 2810 2809 2808 2807 2808 2807 2806 2807 2808 2806 2805 2806 2806 2806 2806 2804 2803 2803 2801 2800
2884 2881 2879 2876 2873 2871 2869 2867 2865 2862 2860 2857 2856 2853 2851 2849 2847 2846 2844 2843 2841 2840 2838 2837 2835 2834 2832 2832 2831 2830 2829 2828 2827 2825 2824 2822 2820 2818 2816 2816 2817 2816 2816 2815 2815 2815 2815 2815 2815 2815 2814 2814 2813 2812 2811 2810 2810 2809 2807 2807 2807 2806 2806 2804 2802 2802 2801 2800 2799 2799 2799 2798 2798 2799 2798 2798 2798 2798 2798 2798 2797 2795 2794 2794 2792
2874 2872 2869 2867 2864 2862 2860 2859 2856 2854 2851 2849 2847 2845 2843 2841 2839 2837 2835 2833 2832 2831 2829 2828 2826 2825 2823 2822 2822 2821 2820 2819 2817 2816 2814 2813 2811 2809 2807 2807 2808 2808 2807 2807 2806 2806 2806 2806 2806 2806 2805 2804 2803 2803 2802 2801 2801 2800 2799 2798 2799 2798 2798 2797 2796 2795 2794 2793 2792 2791 2792 2792 2790 2790 2791 2791 2789 2790 2790 2790 2790 2788 2787 2786 2786
2866 2863 2860 2857 2854 2853 2852 2850 2847 2845 2843 2841 2839 2837 2835 2833 2831 2829 2827 2825 2824 2822 2821 2819 2818 2817 2815 2814 2813 2813 2812 2811 2809 2807 2806 2804 2803 2800 2798 2799 2800 2799 2799 2799 2798 2797 2797 2797 2797 2797 2797 2796 2795 2794 2793 2792 2791 2791 2790 2790 2790 2790 2790 2789 2789 2789 2787 2786 2784 2783 2784 2785 2783 2782 2784 2784 2782 2782 2782 2782 2782 2781 2780 2780 2779
2858 2855 2851 2848 2846 2845 2842 2840 2838 2836 2834 2833 2831 2829 2827 2825 2823 2821 2819 2818 2816 2814 2813 2812 2810 2809 2807 2806 2805 2805 2804 2803 2801 2800 2798 2797 2795 2792 2791 2792 2792 2792 2792 2791 2790 2790 2790 2789 2789 2789 2789 2788 2787 2786 2785 2784 2783 2782 2782 2782 2781 2781 2782 2782 2782 2781 2780 2779 2778 2776 2777 2777 2777 2776 2776 2777 2776 2775 2775 2775 2774 2774 2773 2772 2771
2850 2847 2844 2841 2839 2836 2833 2831 2829 2827 2825 2824 2822 2820 2818 2816 2815 2813 2811 2810 2808 2807 2806 2804 2803 2802 2800 2799 2798 2798 2797 2795 2794 2793 2791 2790 2787 2785 2785 2785 2785 2785 2785 2785 2784 2783 2783 2782 2781 2781 2781 2780 2780 2779 2778 2776 2775 2774 2773 2773 2772 2773 2773 2774 2774 2773 2772 2772 2771 2770 2770 2770 2771 2770 2770 2771 2770 2769 2768 2767 2766 2766 2764 2763 2762
2843 2840 2837 2835 2832 2829 2826 2824 2822 2820 2818 2816 2814 2812 2810 2808 2807 2805 2803 2802 2801 2799 2798 2797 2795 2794 2793 2792 2790 2790 2790 2789 2787 2786 2785 2783 2780 2778 2778 2778 2777 2777 2778 2778 2777 2777 2777 2776 2775 2774 2773 2772 2772 2772 2772 2769 2767 2766 2765 2764 2764 2764 2764 2764 2764 2764 2764 2764 2763 2763 2762 2762 2763 2763 2764 2765 2764 2762 2761 2759 2759 2759 2757 2755 2754
2836 2833 2832 2829 2826 2823 2820 2817 2815 2813 2811 2809 2806 2804 2802 2801 2799 2797 2795 2794 2793 2791 2790 2789 2788 2787 2785 2784 2783 2782 2783 2782 2780 2778 2778 2776 2773 2771 2770 2770 2770 2770 2770 2770 2770 2769 2769 2769 2767 2766 2765 2764 2764 2765 2764 2761 2758 2758 2757 2755 2754 2754 2754 2754 2754 2754 2755 2754 2754 2755 2755 2755 2755 2755 2756 2757 2757 2757 2755 2753 2753 2753 2751 2750 2749
2829 2827 2825 2822 2819 2816 2813 2811 2808 2806 2804 2802 2800 2797 2795 2793 2792 2790 2788 2786 2785 2784 2782 2781 2781 2779 2778 2777 2776 2775 2774 2774 2772 2771 2771 2769 2766 2764 2763 2763 2762 2762 2762 2762 2762 2761 2760 2760 2759 2758 2757 2757 2757 2757 2755 2753 2751 2750 2748 2746 2745 2745 2745 2745 2744 2744 2744 2744 2745 2746 2747 2747 2748 2747 2748 2749 2750 2750 2750 2749 2749 2748 2745 2745 2745
2822 2820 2817 2815 2812 2809 2807 2804 2802 2799 2797 2795 2793 2790 2788 2786 2784 2782 2781 2779 2778 2777 2775 2774 2773 2772 2771 2770 2769 2768 2766 2766 2765 2764 2763 2763 2760 2757 2756 2755 2755 2754 2754 2753 2753 2753 2752 2752 2751 2751 2750 2749 2749 2748 2748 2747 2745 2742 2739 2737 2738 2739 2738 2736 2735 2736 2735 2735 2736 2737 2738 2739 2740 2740 2741 2741 2742 2743 2743 2743 2743 2742 2740 2739 2739
2816 2813 2811 2808 2805 2803 2800 2798 2795 2793 2790 2788 2786 2784 2781 2779 2777 2775 2773 2772 2770 2769 2768 2766 2765 2765 2764 2762 2761 2761 2759 2758 2758 2757 2756 2755 2753 2750 2748 2748 2748 2746 2746 2746 2745 2745 2745 2744 2743 2743 2742 2741 2741 2741 2742 2742 2738 2734 2732 2732 2733 2732 2729 2728 2728 2729 2729 2728 2729 2729 2730 2731 2732 2732 2733 2734 2734 2735 2735 2736 2736 2735 2734 2733 2732
2809 2807 2804 2802 2799 2796 2794 2791 2788 2786 2784 2781 2779 2777 2775 2772 2770 2768 2766 2765 2763 2762 2760 2759 2758 2757 2756 2755 2754 2753 2752 2751 2750 2749 2748 2748 2747 2744 2742 2741 2740 2739 2738 2738 2738 2738 2738 2737 2736 2736 2736 2735 2734 2735 2735 2733 2730 2728 2728 2728 2727 2725 2724 2722 2722 2723 2722 2722 2722 2722 2723 2724 2725 2725 2726 2726 2727 2727 2727 2727 2728 2728 2727 2727 2726
2803 2800 2797 2795 2792 2789 2787 2784 2782 2779 2777 2774 2772 2770 2768 2766 2763 2761 2759 2757 2756 2754 2753 2751 2750 2749 2749 2748 2747 2746 2745 2743 2742 2742 2741 2740 2740 2738 2736 2735 2734 2732 2731 2731 2731 2731 2731 2731 2731 2730 2730 2729 2729 2729 2727 2726 2724 2724 2724 2723 2721 2720 2719 2718 2717 2717 2716 2716 2715 2716 2717 2718 2718 2718 2719 2719 2720 2720 2720 2720 2720 2720 2720 2721 2721
2796 2793 2790 2788 2785 2782 2779 2777 2774 2771 2769 2767 2764 2762 2760 2758 2756 2754 2752 2750 2748 2747 2745 2744 2742 2741 2741 2740 2739 2738 2737 2737 2736 2735 2734 2733 2733 2732 2731 2730 2729 2727 2725 2725 2725 2725 2725 2725 2725 2724 2723 2723 2723 2722 2721 2720 2719 2719 2718 2717 2716 2715 2714 2713 2712 2712 2711 2710 2710 2710 2711 2711 2711 2711 2712 2712 2713 2713 2713 2713 2713 2713 2714 2714 2714
2789 2787 2784 2781 2777 2774 2772 2769 2766 2764 2761 2759 2756 2754 2752 2751 2749 2747 2745 2743 2741 2740 2738 2737 2735 2734 2734 2733 2732 2732 2731 2731 2730 2729 2728 2727 2726 2726 2725 2724 2723 2722 2720 2719 2720 2720 2719 2719 2719 2719 2718 2718 2717 2716 2716 2715 2714 2713 2712 2711 2710 2710 2709 2708 2707 2707 2706 2705 2704 2704 2705 2705 2705 2705 2705 2706 2706 2707 2707 2707 2707 2707 2707 2707 2707
2782 2779 2776 2773 2770 2767 2764 2762 2759 2757 2754 2752 2749 2747 2745 2743 2741 2740 2738 2736 2734 2733 2731 2730 2729 2728 2727 2726 2726 2725 2725 2725 2724 2723 2722 2721 2720 2720 2719 2718 2717 2717 2716 2715 2715 2714 2715 2715 2714 2713 2713 2712 2711 2711 2710 2710 2709 2708 2707 2706 2705 2705 2704 2703 2702 2701 2700 2699 2699 2699 2699 2699 2699 2699 2700 2700 2700 2700 2701 2700 2700 2700 2700 2700 2700
2775 2772 2769 2766 2763 2760 2757 2755 2752 2750 2747 2745 2742 2740 2739 2737 2735 2733 2731 2729 2727 2726 2724 2723 2722 2721 2720 2720 2719 2719 2719 2719 2719 2718 2716 2715 2714 2714 2713 2712 2712 2712 2712 2711 2711 2711 2710 2710 2709 2708 2707 2707 2707 2706 2705 2705 2704 2703 2702 2701 2700 2700 2699 2698 2697 2696 2695 2694 2694 2694 2694 2694 2693 2694 2694 2694 2694 2695 2695 2695 2694 2694 2694 2694 2693
2767 2764 2761 2758 2756 2753 2749 2747 2744 2742 2740 2737 2735 2733 2732 2730 2728 2726 2725 2722 2720 2719 2718 2716 2715 2714 2713 2712 2712 2712 2713 2713 2713 2712 2711 2709 2709 2709 2708 2707 2706 2707 2707 2706 2707 2707 2706 2705 2704 2703 2703 2702 2702 2702 2701 2700 2699 2698 2697 2697 2696 2695 2694 2693 2692 2691 2690 2690 2689 2689 2689 2688 2688 2688 2689 2689 2689 2690 2690 2690 2689 2689 2689 2689 2688
2760 2757 2754 2751 2748 2745 2742 2739 2737 2734 2732 2730 2728 2726 2724 2722 2720 2719 2718 2716 2714 2712 2711 2709 2709 2708 2706 2706 2705 2705 2706 2708 2708 2707 2705 2704 2703 2703 2702 2701 2701 2701 2701 2702 2703 2703 2701 2700 2700 2699 2698 2698 2698 2697 2697 2696 2695 2694 2693 2692 2692 2691 2690 2689 2688 2687 2686 2685 2685 2684 2684 2683 2683 2683 2683 2684 2684 2685 2685 2685 2684 2684 2684 2684 2683
2753 2750 2747 2744 2741 2737 2735 2732 2730 2727 2724 2722 2720 2719 2718 2716 2714 2712 2711 2710 2708 2706 2704 2703 2702 2701 2699 2699 2699 2698 2699 2700 2702 2701 2700 2699 2698 2698 2697 2696 2696 2695 2695 2697 2698 2697 2696 2696 2695 2695 2694 2694 2694 2693 2693 2692 2691 2691 2690 2689 2688 2687 2686 2684 2683 2683 2682 2681 2680 2680 2679 2678 2678 2678 2678 2679 2679 2680 2680 2680 2680 2680 2680 2679 2679
2745 2742 2739 2736 2733 2730 2727 2724 2722 2719 2717 2715 2712 2711 2710 2709 2708 2706 2704 2702 2701 2700 2699 2697 2696 2695 2693 2692 2692 2692 2693 2693 2694 2695 2694 2694 2693 2692 2692 2692 2692 2691 2690 2691 2692 2692 2691 2691 2691 2690 2690 2690 2689 2689 2689 2688 2687 2687 2686 2685 2684 2683 2682 2681 2679 2678 2678 2677 2676 2675 2675 2674 2674 2674 2674 2674 2675 2676 2676 2676 2676 2676 2676 2675 2675
2738 2735 2732 2729 2726 2723 2720 2717 2714 2712 2709 2707 2705 2703 2701 2700 2700 2699 2698 2697 2695 2693 2692 2691 2690 2689 2688 2686 2685 2685 2687 2688 2688 2688 2688 2688 2688 2687 2687 2687 2687 2687 2686 2686 2687 2687 2687 2686 2686 2686 2686 2686 2685 2685 2684 2684 2683 2682 2682 2681 2680 2679 2678 2677 2676 2675 2674 2673 2672 2672 2671 2671 2670 2670 2670 2671 2671 2672 2673 2673 2673 2673 2672 2672 2672
2731 2728 2725 2722 2719 2716 2713 2710 2707 2705 2702 2700 2698 2696 2694 2692 2691 2691 2691 2690 2689 2688 2686 2685 2684 2683 2682 2681 2680 2680 2680 2681 2682 2682 2682 2683 2682 2682 2682 2682 2682 2682 2682 2682 2682 2683 2683 2682 2682 2682 2682 2682 2682 2681 2681 2680 2679 2679 2678 2677 2676 2676 2675 2673 2672 2671 2670 2669 2669 2668 2668 2667 2667 2667 2667 2668 2668 2669 2669 2670 2670 2669 2669 2669 2669
2726 2722 2719 2715 2712 2709 2706 2703 2700 2698 2695 2693 2691 2689 2687 2685 2684 2682 2682 2682 2682 2682 2680 2679 2678 2677 2677 2676 2675 2675 2675 2675 2676 2677 2677 2678 2677 2676 2676 2677 2678 2678 2678 2677 2678 2678 2678 2678 2679 2678 2678 2678 2678 2677 2677 2676 2676 2675 2674 2673 2673 2672 2671 2670 2669 2668 2667 2666 2666 2665 2664 2664 2664 2664 2665 2665 2666 2666 2666 2666 2666 2666 2666 2666 2666
2721 2717 2713 2709 2706 2703 2699 2696 2694 2691 2689 2687 2684 2682 2681 2679 2678 2676 2675 2674 2674 2675 2674 2674 2673 2672 2671 2671 2670 2670 2670 2671 2671 2672 2672 2673 2671 2670 2671 2672 2673 2673 2673 2673 2674 2674 2674 2675 2675 2675 2675 2675 2674 2674 2673 2673 2672 2671 2671 2670 2670 2669 2668 2667 2666 2665 2664 2663 2663 2662 2661 2661 2661 2661 2662 2663 2663 2663 2663 2664 2664 2663 2663 2663 2663
2716 2712 2708 2704 2700 2697 2694 2691 2688 2685 2683 2681 2679 2677 2675 2674 2672 2671 2670 2669 2668 2668 2668 2668 2668 2667 2667 2666 2666 2666 2666 2666 2667 2667 2667 2667 2666 2665 2667 2668 2669 2669 2669 2669 2670 2670 2670 2671 2671 2671 2671 2671 2671 2671 2670 2669 2669 2668 2667 2667 2666 2666 2665 2663 2663 2662 2661 2661 2660 2659 2659 2659 2659 2659 2660 2660 2661 2661 2661 2661 2661 2661 2661 2661 2661
2711 2707 2703 2699 2695 2692 2689 2686 2683 2680 2678 2676 2674 2672 2670 2669 2667 2666 2665 2664 2663 2663 2663 2663 2663 2663 2662 2662 2662 2662 2662 2662 2662 2663 2663 2662 2662 2662 2663 2665 2665 2665 2665 2665 2666 2667 2667 2667 2667 2668 2668 2668 2668 2667 2667 2666 2666 2665 2665 2664 2663 2662 2661 2661 2660 2659 2659 2658 2657 2657 2656 2656 2657 2657 2658 2658 2659 2659 2659 2659 2659 2659 2659 2659 2660
2706 2702 2698 2694 2690 2687 2684 2681 2678 2676 2673 2671 2669 2667 2666 2664 2663 2662 2661 2660 2659 2659 2658 2658 2658 2658 2659 2659 2659 2658 2658 2658 2659 2659 2659 2659 2659 2659 2660 2661 2661 2661 2661 2662 2663 2663 2664 2664 2664 2664 2664 2665 2664 2664 2664 2663 2663 2662 2662 2661 2660 2659 2658 2658 2657 2656 2656 2655 2655 2654 2654 2654 2654 2655 2656 2656 2657 2657 2657 2657 2657 2658 2658 2658 2658
2703 2699 2695 2690 2687 2683 2680 2677 2674 2672 2669 2667 2666 2664 2662 2661 2660 2658 2657 2657 2656 2655 2655 2655 2655 2655 2655 2655 2655 2655 2655 2655 2655 2656 2656 2656 2656 2657 2657 2657 2658 2658 2658 2659 2660 2660 2661 2661 2661 2661 2661 2661 2661 2661 2661 2661 2660 2659 2659 2658 2657 2656 2656 2655 2655 2654 2654 2653 2653 2652 2652 2652 2653 2653 2654 2654 2655 2655 2655 2656 2656 2656 2656 2656 2657
2700 2696 2692 2688 2684 2680 2677 2673 2671 2668 2666 2664 2663 2661 2660 2658 2657 2656 2655 2654 2653 2653 2652 2652 2652 2652 2652 2652 2652 2652 2653 2653 2653 2653 2653 2653 2654 2654 2655 2655 2655 2655 2656 2657 2657 2657 2658 2658 2658 2658 2659 2659 2659 2659 2658 2658 2657 2657 2656 2655 2655 2654 2653 2652 2652 2652 2651 2651 2650 2650 2650 2650 2651 2652 2652 2653 2653 2654 2654 2654 2654 2655 2655 2655 2655
2697 2693 2689 2685 2681 2678 2674 2671 2669 2666 2664 2662 2660 2659 2658 2656 2655 2654 2653 2652 2651 2651 2650 2650 2650 2650 2650 2650 2650 2650 2650 2650 2651 2651 2651 2651 2652 2652 2652 2653 2653 2653 2654 2654 2654 2655 2655 2655 2656 2656 2656 2656 2656 2656 2656 2655 2655 2654 2653 2653 2652 2651 2651 2650 2650 2649 2649 2648 2648 2648 2648 2649 2649 2650 2651 2651 2652 2652 2652 2653 2653 2653 2653 2654 2654
2696 2692 2688 2684 2680 2676 2673 2670 2667 2665 2663 2661 2659 2658 2656 2655 2654 2653 2652 2651 2650 2649 2649 2648 2648 2648 2648 2648 2648 2648 2648 2649 2649 2649 2650 2650 2650 2650 2651 2651 2651 2651 2651 2651 2652 2652 2653 2653 2653 2654 2654 2654 2654 2654 2653 2653 2652 2652 2651 2650 2650 2649 2648 2648 2647 2647 2646 2646 2646 2646 2647 2647 2648 2649 2649 2650 2650 2651 2651 2651 2652 2652 2652 2653 2653
2695 2691 2687 2684 2680 2676 2673 2670 2667 2665 2663 2661 2659 2657 2656 2655 2653 2652 2651 2650 2649 2648 2648 2648 2647 2647 2647 2647 2647 2647 2647 2648 2648 2648 2648 2649 2649 2649 2649 2649 2649 2649 2649 2650 2650 2651 2651 2651 2652 2652 2653 2653 2652 2652 2652 2651 2650 2649 2649 2648 2647 2647 2646 2645 2645 2645 2644 2644 2644 2645 2645 2646 2647 2648 2648 2648 2649 2649 2650 2650 2651 2651 2651 2652 2652
2695 2691 2687 2684 2680 2677 2674 2671 2668 2666 2663 2661 2659 2658 2656 2655 2653 2652 2651 2650 2649 2649 2648 2648 2647 2647 2647 2647 2647 2647 2647 2647 2647 2648 2648 2648 2648 2648 2648 2648 2648 2648 2648 2649 2649 2650 2650 2651 2651 2651 2651 2651 2651 2650 2650 2649 2648 2647 2647 2646 2645 2644 2644 2643 2643 2642 2642 2642 2643 2643 2644 2645 2646 2646 2647 2647 2648 2648 2649 2649 2650 2650 2650 2651 2651
2695 2692 2688 2685 2681 2678 2675 2672 2669 2667 2665 2663 2661 2659 2657 2656 2654 2653 2652 2651 2650 2649 2649 2648 2648 2648 2648 2647 2647 2647 2647 2647 2647 2647 2647 2648 2648 2647 2647 2648 2648 2648 2648 2649 2649 2650 2650 2650 2650 2650 2650 2650 2649 2649 2648 2647 2647 2646 2645 2644 2643 2643 2642 2641 2641 2641 2641 2641 2641 2642 2643 2644 2645 2646 2646 2647 2647 2648 2648 2648 2649 2649 2649 2649 2649
2697 2693 2689 2686 2683 2680 2677 2674 2671 2669 2666 2664 2662 2661 2659 2657 2656 2655 2654 2653 2652 2651 2650 2650 2649 2649 2649 2648 2648 2648 2648 2648 2648 2648 2648 2648 2648 2648 2648 2648 2648 2649 2649 2649 2650 2650 2650 2650 2650 2650 2649 2649 2648 2648 2647 2646 2646 2645 2644 2643 2642 2641 2641 2640 2640 2640 2640 2640 2640 2641 2642 2643 2644 2645 2645 2646 2646 2647 2647 2647 2647 2648 2648 2647 2647
2698 2694 2691 2688 2685 2682 2679 2676 2674 2671 2669 2667 2665 2663 2661 2660 2658 2657 2656 2655 2654 2653 2652 2652 2651 2651 2650 2650 2649 2649 2649 2649 2649 2649 2649 2649 2649 2649 2649 2649 2649 2650 2650 2650 2650 2650 2650 2650 2649 2649 2649 2648 2648 2647 2646 2646 2645 2644 2643 2643 2642 2641 2640 2640 2640 2639 2640 2640 2641 2641 2642 2643 2643 2644 2644 2645 2645 2645 2646 2646 2646 2646 2646 2646 2645
2699 2696 2693 2690 2687 2684 2681 2679 2676 2674 2671 2669 2667 2665 2664 2662 2661 2659 2658 2657 2656 2655 2654 2654 2653 2652 2652 2651 2651 2651 2650 2650 2650 2650 2650 2650 2650 2650 2650 2651 2651 2651 2651 2651 2650 2650 2650 2650 2649 2649 2649 2648 2648 2647 2646 2646 2645 2644 2644 2643 2642 2641 2641 2640 2640 2640 2640 2641 2641 2642 2642 2643 2643 2643 2644 2644 2644 2644 2645 2645 2645 2645 2644 2644 2644
2701 2698 2695 2692 2689 2687 2684 2681 2679 2676 2674 2672 2670 2668 2666 2665 2663 2662 2661 2659 2658 2657 2657 2656 2655 2654 2654 2653 2653 2653 2652 2652 2652 2652 2652 2652 2652 2652 2652 2652 2652 2652 2652 2651 2651 2651 2651 2650 2650 2649 2649 2649 2648 2647 2647 2646 2646 2645 2644 2643 2643 2642 2642 2641 2641 2641 2641 2641 2642 2642 2642 2642 2643 2643 2643 2643 2643 2643 2643 2643 2643 2643 2643 2643 2642
2703 2700 2697 2695 2692 2689 2687 2684 2681 2679 2677 2675 2673 2671 2669 2668 2666 2665 2663 2662 2661 2660 2659 2658 2658 2657 2656 2656 2656 2655 2655 2655 2655 2655 2654 2654 2654 2654 2654 2654 2653 2653 2653 2652 2652 2652 2651 2651 2651 2650 2650 2649 2649 2648 2648 2647 2646 2646 2645 2644 2644 2643 2643 2643 2642 2642 2642 2642 2642 2642 2642 2642 2642 2643 2643 2643 2643 2643 2643 2642 2642 2642 2642 2641 2641
2706 2703 2700 2697 2695 2692 2689 2687 2685 2682 2680 2678 2676 2674 2673 2671 2669 2668 2667 2665 2664 2663 2662 2662 2661 2660 2660 2659 2659 2658 2658 2658 2658 2657 2657 2657 2656 2656 2656 2655 2655 2655 2654 2654 2653 2653 2653 2652 2652 2652 2651 2650 2650 2649 2649 2648 2647 2647 2646 2646 2645 2645 2644 2644 2643 2643 2643 2643 2643 2643 2643 2643 2643 2642 2642 2642 2642 2642 2642 2642 2641 2641 2641 2641 2640